Torna al catalogo

STARLINK-4130

AttivoComunicazioniVLEO
NORAD 53263·PAYLOAD·🇺🇸 United States

Lanciato Jul 24, 2022 da Cape Canaveral Space Force Station

Loading…

Prossimi Passaggi (prossime 24 ore)

TLE

AggiornatoSource: CelesTrak SupGP

Epoca: Sep 14, 2026, 22:14 UTC

1 53263C 22086X   26257.92687500  .00036517  00000+0  10789-2 0  2571
2 53263  53.1598  51.4359 0001161  78.2342 320.8828 15.34372487    10

Traccia STARLINK-4130 in tempo reale con AllMySat

Download on the App Store